This is the latest recevied weather packets stored in our database for station/object N0ZJT. If no packets are shown the sender has not sent any weather packets the latest 1 day(s).
| Time | Temp. | Humidity | Pressure | Rain* | Wind** | Luminosity | Snow |
|---|---|---|---|---|---|---|---|
| 1778054542 | 5.56° C | 50% | 975.6 hPa | 0 mm | - | - | - |
| 1778053582 | 5.56° C | 49% | 975.6 hPa | 0 mm | - | - | - |
| 1778052742 | 6.11° C | 49% | 975.5 hPa | 0 mm | - | - | - |
| 1778051782 | 6.11° C | 48% | 975.3 hPa | 0 mm | - | - | - |
| 1778050942 | 6.67° C | 47% | 974.9 hPa | 0 mm | - | - | - |
| 1778049982 | 6.67° C | 47% | 974.9 hPa | 0 mm | - | - | - |
| 1778049142 | 6.67° C | 46% | 974.7 hPa | 0 mm | - | - | - |
| 1778048182 | 7.22° C | 47% | 974.9 hPa | 0 mm | - | - | - |
| 1778047342 | 7.22° C | 46% | 974.6 hPa | 0 mm | - | - | - |
| 1778046382 | 7.22° C | 46% | 974.6 hPa | 0 mm | - | - | - |
| 1778045542 | 7.22° C | 46% | 974.5 hPa | 0 mm | - | - | - |
| 1778044582 | 7.78° C | 45% | 974.4 hPa | 0 mm | - | - | - |
| 1778043742 | 7.78° C | 45% | 974.4 hPa | 0 mm | - | - | - |
| 1778042782 | 7.78° C | 44% | 974.2 hPa | 0 mm | - | - | - |
| 1778041942 | 8.33° C | 44% | 974.2 hPa | 0 mm | - | - | - |
| 1778040982 | 8.89° C | 43% | 973.8 hPa | 0 mm | - | - | - |
| 1778040142 | 8.89° C | 42% | 973.8 hPa | 0 mm | - | - | - |
| 1778039182 | 8.89° C | 42% | 974 hPa | 0 mm | - | - | - |
| 1778038342 | 9.44° C | 40% | 973.9 hPa | 0 mm | - | - | - |
| 1778037382 | 9.44° C | 40% | 973.8 hPa | 0 mm | - | - | - |
| 1778036542 | 10° C | 40% | 973.7 hPa | 0 mm | - | - | - |
| 1778035582 | 10° C | 39% | 973.6 hPa | 0 mm | - | - | - |
| 1778034742 | 10° C | 38% | 973.5 hPa | 0 mm | - | - | - |
| 1778033782 | 10° C | 38% | 973.4 hPa | 0 mm | - | - | - |
| 1778032942 | 10.56° C | 37% | 973.2 hPa | 0 mm | - | - | - |
* Rain latest hour (hover to see other rain measurements)
** Current wind speed in m/s (hover to see current wind gust speed)